This is the latest recevied weather packets stored in our database for station/object W5ADC. If no packets are shown the sender has not sent any weather packets the latest 10 day(s).
| Time | Temp. | Humidity | Pressure | Rain* | Wind** | Luminosity | Snow |
|---|---|---|---|---|---|---|---|
| 1777333521 | 31.67° C | 60% | 1003.8 hPa | 0 mm | - | 55 W/m² | - |
| 1777333218 | 31.67° C | 61% | 1003.8 hPa | 0 mm | - | 58 W/m² | - |
| 1777332916 | 31.67° C | 61% | 1004 hPa | 0 mm | - | 90 W/m² | - |
| 1777332615 | 31.67° C | 59% | 1003.7 hPa | 0 mm | - | 95 W/m² | - |
| 1777332310 | 31.67° C | 59% | 1003.7 hPa | 0 mm | - | 72 W/m² | - |
| 1777332007 | 31.67° C | 59% | 1003.7 hPa | 0 mm | - | 81 W/m² | - |
| 1777331705 | 31.67° C | 59% | 1003.6 hPa | 0 mm | - | 60 W/m² | - |
| 1777331402 | 31.67° C | 59% | 1003.7 hPa | 0 mm | - | 66 W/m² | - |
| 1777331099 | 31.67° C | 60% | 1003.9 hPa | 0 mm | - | 76 W/m² | - |
| 1777330796 | 31.67° C | 60% | 1003.6 hPa | 0 mm | - | 70 W/m² | - |
| 1777330493 | 31.67° C | 59% | 1003.5 hPa | 0 mm | - | 70 W/m² | - |
| 1777330190 | 31.67° C | 59% | 1003.6 hPa | 0 mm | - | 66 W/m² | - |
| 1777329889 | 31.67° C | 57% | 1003.6 hPa | 0 mm | - | 81 W/m² | - |
| 1777329587 | 31.67° C | 57% | 1003.6 hPa | 0 mm | - | 81 W/m² | - |
| 1777329285 | 32.22° C | 57% | 1003.6 hPa | 0 mm | - | 84 W/m² | - |
| 1777328982 | 32.22° C | 54% | 1003.4 hPa | 0 mm | - | 99 W/m² | - |
| 1777328680 | 32.22° C | 49% | 1003.4 hPa | 0 mm | - | 86 W/m² | - |
| 1777328377 | 32.78° C | 47% | 1003.5 hPa | 0 mm | - | 90 W/m² | - |
| 1777328076 | 32.78° C | 47% | 1003.4 hPa | 0 mm | - | 103 W/m² | - |
| 1777327774 | 32.78° C | 46% | 1003.4 hPa | 0 mm | - | 113 W/m² | - |
| 1777327471 | 32.78° C | 48% | 1003.5 hPa | 0 mm | - | 110 W/m² | - |
| 1777327168 | 32.78° C | 48% | 1003.4 hPa | 0 mm | - | 100 W/m² | - |
| 1777326865 | 33.33° C | 46% | 1003.3 hPa | 0 mm | - | 128 W/m² | - |
| 1777326562 | 33.89° C | 45% | 1003.5 hPa | 0 mm | - | 288 W/m² | - |
| 1777326260 | 33.33° C | 43% | 1003.6 hPa | 0 mm | - | 456 W/m² | - |
* Rain latest hour (hover to see other rain measurements)
** Current wind speed in m/s (hover to see current wind gust speed)